This demonstration page uses our WeatherBlox Daily Observations layout. Learn more.

Hourly Observations for December 21, 2019

Temp ( °F °C ) Dew Point ( °F °C ) Humidity (%) Winds ( mph kmh ) Pressure ( in mb ) Visibility ( mi km ) Precip ( " mm )
12:15 am 00:15 Clear 27 -3 23 -5 86 86 Calm 30.66 1038 10 16.0934 0 0
12:35 am 00:35 Clear 25 -4 23 -5 93 93 Calm 30.66 1038 10 16.0934 0 0
12:55 am 00:55 Clear 27 -3 23 -5 86 86 Calm 30.65 1038 10 16.0934 0 0
1:15 am 01:15 Clear 23 -5 23 -5 100 100 Calm 30.66 1038 10 16.0934 0 0
1:35 am 01:35 Clear 23 -5 23 -5 100 100 Calm 30.67 1039 10 16.0934 0 0
1:55 am 01:55 Clear 25 -4 23 -5 93 93 Calm 30.67 1039 10 16.0934 0 0
2:15 am 02:15 Clear 25 -4 23 -5 93 93 Calm 30.68 1039 10 16.0934 0 0
2:35 am 02:35 Clear 25 -4 23 -5 93 93 Calm 30.67 1039 10 16.0934 0 0
2:55 am 02:55 Clear 23 -5 23 -5 100 100 Calm 30.67 1039 10 16.0934 0 0
3:15 am 03:15 Clear 25 -4 25 -4 100 100 Calm 30.67 1039 10 16.0934 0 0
3:35 am 03:35 Clear 27 -3 23 -5 86 86 Calm 30.66 1038 10 16.0934 0 0
3:55 am 03:55 Clear 27 -3 21 -6 80 80 Calm 30.65 1038 10 16.0934 0 0
4:15 am 04:15 Clear 23 -5 23 -5 100 100 Calm 30.64 1038 10 16.0934 0 0
4:35 am 04:35 Clear 23 -5 23 -5 100 100 Calm 30.65 1038 10 16.0934 0 0
4:55 am 04:55 Clear 23 -5 23 -5 100 100 Calm 30.64 1038 10 16.0934 0 0
5:15 am 05:15 Clear 23 -5 21 -6 93 93 Calm 30.64 1038 10 16.0934 0 0
5:35 am 05:35 Clear 23 -5 23 -5 100 100 Calm 30.64 1038 10 16.0934 0 0
5:55 am 05:55 Clear 23 -5 21 -6 93 93 Calm 30.66 1038 10 16.0934 0 0
6:15 am 06:15 Clear 23 -5 23 -5 100 100 N 3 6 30.65 1038 10 16.0934 0 0
6:35 am 06:35 Clear 23 -5 21 -6 93 93 Calm 30.65 1038 10 16.0934 0 0
6:55 am 06:55 Clear 23 -5 21 -6 93 93 Calm 30.65 1038 10 16.0934 0 0
7:15 am 07:15 Clear 23 -5 21 -6 93 93 Calm 30.64 1038 10 16.0934 0 0
7:35 am 07:35 Sunny 23 -5 23 -5 100 100 Calm 30.65 1038 7 11.26538 0 0
7:55 am 07:55 Sunny 21 -6 21 -6 100 100 Calm 30.65 1038 7 11.26538 0 0
8:15 am 08:15 Sunny 23 -5 23 -5 100 100 Calm 30.65 1038 10 16.0934 0 0
8:35 am 08:35 Sunny 23 -5 23 -5 100 100 Calm 30.66 1038 10 16.0934 0 0
8:55 am 08:55 Sunny 27 -3 23 -5 86 86 Calm 30.65 1038 10 16.0934 0 0
9:15 am 09:15 Sunny 27 -3 23 -5 86 86 Calm 30.64 1037 10 16.0934 0 0
9:35 am 09:35 Sunny 28 -2 25 -4 86 86 Calm 30.64 1037 10 16.0934 0 0
9:55 am 09:55 Sunny 28 -2 23 -5 80 80 Calm 30.64 1037 10 16.0934 0 0
10:15 am 10:15 Sunny 28 -2 23 -5 80 80 Calm 30.64 1037 10 16.0934 0 0
10:35 am 10:35 Sunny 30 -1 23 -5 75 75 Calm 30.62 1037 10 16.0934 0 0
10:55 am 10:55 Sunny 30 -1 25 -4 80 80 Calm 30.61 1037 10 16.0934 0 0
11:15 am 11:15 Sunny 32 0 27 -3 80 80 Calm 30.6 1036 10 16.0934 0 0
11:35 am 11:35 Sunny 32 0 27 -3 80 80 S 5 7 30.59 1036 10 16.0934 0 0
11:55 am 11:55 Sunny 32 0 27 -3 80 80 Calm 30.58 1036 10 16.0934 0 0
12:15 pm 12:15 Sunny 32 0 27 -3 80 80 Calm 30.57 1035 10 16.0934 0 0
12:35 pm 12:35 Sunny 32 0 27 -3 80 80 SSE 3 6 30.56 1035 10 16.0934 0 0
12:55 pm 12:55 Sunny 34 1 27 -3 75 75 S 3 6 30.55 1035 10 16.0934 0 0
1:15 pm 13:15 Sunny 34 1 27 -3 75 75 S 6 9 30.54 1034 10 16.0934 0 0
1:35 pm 13:35 Sunny 34 1 27 -3 75 75 S 7 11 30.53 1034 10 16.0934 0 0
1:55 pm 13:55 Sunny 34 1 27 -3 75 75 SSW 6 9 30.53 1034 10 16.0934 0 0
2:15 pm 14:15 Sunny 36 2 27 -3 70 70 S 5 7 30.51 1033 10 16.0934 0 0
2:35 pm 14:35 Sunny 36 2 27 -3 70 70 Calm 30.53 1034 10 16.0934 0 0
2:55 pm 14:55 Sunny 36 2 27 -3 70 70 Calm 30.53 1034 10 16.0934 0 0
3:15 pm 15:15 Sunny 36 2 27 -3 70 70 Calm 30.52 1033 10 16.0934 0 0
3:35 pm 15:35 Sunny 36 2 27 -3 70 70 S 6 9 30.5 1033 10 16.0934 0 0
3:55 pm 15:55 Sunny 36 2 27 -3 70 70 SSW 3 6 30.51 1033 10 16.0934 0 0
4:15 pm 16:15 Sunny 36 2 27 -3 70 70 Calm 30.5 1033 10 16.0934 0 0
4:35 pm 16:35 Sunny 36 2 27 -3 70 70 Calm 30.5 1033 10 16.0934 0 0
4:55 pm 16:55 Clear 34 1 27 -3 75 75 Calm 30.5 1033 10 16.0934 0 0
5:35 pm 17:35 Clear 32 0 27 -3 80 80 Calm 30.51 1033 10 16.0934 0 0
5:55 pm 17:55 Clear 30 -1 27 -3 86 86 Calm 30.5 1033 10 16.0934 0 0
6:15 pm 18:15 Clear 30 -1 27 -3 86 86 Calm 30.51 1033 10 16.0934 0 0
6:35 pm 18:35 Clear 30 -1 27 -3 86 86 Calm 30.51 1033 10 16.0934 0 0
6:55 pm 18:55 Clear 28 -2 27 -3 93 93 Calm 30.52 1033 10 16.0934 0 0
7:15 pm 19:15 Clear 28 -2 27 -3 93 93 Calm 30.52 1033 10 16.0934 0 0
7:35 pm 19:35 Clear 28 -2 27 -3 93 93 Calm 30.52 1033 10 16.0934 0 0
7:55 pm 19:55 Clear 27 -3 27 -3 100 100 Calm 30.52 1033 10 16.0934 0 0
8:15 pm 20:15 Clear 27 -3 27 -3 100 100 Calm 30.51 1033 10 16.0934 0 0
8:35 pm 20:35 Clear 27 -3 25 -4 93 93 Calm 30.51 1033 10 16.0934 0 0
8:55 pm 20:55 Clear 27 -3 23 -5 86 86 Calm 30.52 1033 10 16.0934 0 0
9:15 pm 21:15 Clear 27 -3 25 -4 93 93 Calm 30.51 1033 10 16.0934 0 0
9:35 pm 21:35 Clear 27 -3 25 -4 93 93 Calm 30.51 1033 10 16.0934 0 0
9:55 pm 21:55 Clear 25 -4 23 -5 93 93 Calm 30.51 1033 10 16.0934 0 0
10:15 pm 22:15 Clear 25 -4 23 -5 93 93 Calm 30.51 1033 10 16.0934 0 0
10:35 pm 22:35 Clear 25 -4 25 -4 100 100 Calm 30.51 1033 10 16.0934 0 0
10:55 pm 22:55 Clear 25 -4 23 -5 93 93 Calm 30.51 1033 10 16.0934 0 0
11:15 pm 23:15 Clear 23 -5 23 -5 100 100 WSW 3 6 30.5 1033 7 11.26538 0 0
11:35 pm 23:35 Clear 23 -5 23 -5 100 100 Calm 30.5 1033 7 11.26538 0 0
11:55 pm 23:55 Clear 25 -4 23 -5 93 93 Calm 30.49 1032 10 16.0934 0 0

Powered by AerisWeather